Location: Liberec
(50.7830°N, 15.0500°E)
Time: 03:56:11
(UTC+02:00)

ISS - Pass Details

Date: 24 May 2021
Orbit: 417 x 422 km, 51.6° (Epoch: 13 June)

Event Time Altitude Azimuth Distance (km) Brightness Sun altitude
Rises 22:59:25 0° 285° (WNW) 2,368 0.7 -13.8°
Reaches altitude 10° 23:01:32 10° 282° (WNW) 1,503 -0.4 -13.9°
Maximum altitude 23:04:52 63° 201° (SSW) 475 -3.7 -14.2°
Enters shadow 23:06:29 27° 128° (SE) 836 -2.8 -14.3°
